NOAA 16 DEB

Satellite information

Favourite Embed

Satellite Type and Status

DEBRISIN ORBIT

Key statistics

Satellite NOAA 16 DEB at a glance.

Uptime

9109

Days in orbit

Revolutions

≈ 14.1

Per day

Orbit

SSO

Sun Synchronous Orbit

Inclination

98.8

Latest

Satellite identification and parameters

Extended collection of information and parameters for NOAA 16 DEB.

Object identification

Identified? True

Debris? True

Object name: NOAA 16 DEB

International designator: 2000-055JA

Object number (NORAD): 41357

Object ID (CCSDS): 41357

Country: UNITED STATES OF AMERICA (US)

Current information (Y/N): Y

RCS size: SMALL

Orbital parameters

Period: 102.487 minutes

Inclination: 98.8312 deg

SMA: 7254.473 km

Apoapsis: 928.282 km

Periapsis: 824.394 km

RAAN: 229.394 deg

Eccentricy: 0.00716029

Argument of periapsis: 171.3598 deg

Mean anomaly: 188.8821 deg

Mean motion: 14.05057064 rev/day

Mean motion (dot): 0.00001674 rev/day2

B* drag term: 0.0010408309 1/REarth

Two-line elements (TLE)

Creation date: Aug. 27, 2025, 2:14 a.m.

Reference frame: TEME

Reference center: EARTH

Epoch: Aug. 26, 2025, 10:21 p.m. UTC

TLE line 0: 0 NOAA 16 DEB

TLE line 1: 1 41357U 00055JA 25238.93182603 .00001674 00000-0 10408-2 0 9995

TLE line 2: 2 41357 98.8312 229.3940 0071603 171.3598 188.8821 14.05057064488595

Live tracking on map

Real-time ground track for satellite NOAA 16 DEB.

In-orbit conjunctions

A list of the most updated potential collisions computed for object NOAA 16 DEB.

Target Orbit TCA Probability of collision Miss distance Type
SL-16 DEB LEO 2025-04-18 10:01:15 0.0001639974 184.0 (m) DEBRIS
CZ-4 DEB SSO 2024-07-17 02:52:15 0.0001900227 42.0 (m) DEBRIS
FENGYUN 1C DEB SSO 2024-06-25 07:16:49 0.0001146838 172.0 (m) DEBRIS

Associated space launch

The NOAA K, L and M POES satellites begin the fifth generation of improved environmental monitoring in support of NOAA missions. The instrument payload has significant improvements and additions/deletions. The instrument changes have effected the spacecraft subsystems and data formats.

NOAA 16 DEB was lifted into orbit during the mission ‘Titan II SLV | NOAA 16’, on board a Titan II SLV space rocket.

The launch took place on Sept. 21, 2000, 10:22 a.m. from Space Launch Complex 4W.

For more information about the launch, click the button.

Launch to space Titan II SLV | NOAA 16
Titan II SLV | NOAA 16

Agency: N/A

Status: Launch Successful

Launch date: Sept. 21, 2000, 10:22 a.m. UTC

Rocket: Titan II SLV

Launch pad: Space Launch Complex 4W

Location: Vandenberg SFB, CA, USA

...

Latest news about this satellite

There are no fresh news available about this satellite. Check back as we update our databases every day.


Newsletter sign-up

Weekly statistics, charts and insights to help you stay on top of the space industry.